GEFSCGP_850_meantemp_078.txt.gz
Temperature
17 19 20 20 20 19 19 19 19 20 19 15 17 18 20 20 20 18 17 17 17 16 16 15 16 16 16 15 14 13 12 11 10 9 9 8 8 7 7 7 6 6 5 5
19 20 20 17 16 16 17 18 19 20 16 15 17 17 20 20 19 18 17 17 17 16 16 14 15 16 16 16 15 14 13 12 11 11 10 9 8 8 7 7 7 6 5 5
19 19 16 16 17 17 18 18 19 18 18 16 15 19 22 22 19 17 16 15 15 15 15 14 15 16 17 16 16 15 14 13 12 12 10 9 8 8 7 8 7 7 6 5
18 17 16 16 17 17 18 17 16 15 16 18 16 18 21 22 21 21 20 18 16 15 14 14 15 17 17 17 17 16 15 14 13 12 11 11 10 10 10 9 9 8 7 6
19 17 16 17 17 16 17 15 15 15 15 16 16 16 20 22 22 22 21 19 17 16 15 16 17 18 18 18 17 17 16 15 14 14 13 12 11 11 10 8 8 8 7 7
17 15 16 16 15 14 15 15 14 14 15 17 17 17 20 23 21 20 20 19 17 16 16 17 17 18 18 18 18 17 16 16 15 15 14 13 13 12 10 9 8 8 8 7
18 17 15 14 15 15 15 17 19 19 18 19 15 15 19 22 20 19 18 17 16 16 16 17 17 18 18 18 18 18 17 17 16 16 15 15 14 13 12 10 9 8 8 8
18 18 16 15 16 16 16 17 18 18 18 19 16 16 20 21 19 17 16 16 16 16 16 17 17 17 18 18 18 18 18 17 17 16 16 16 15 14 13 12 10 9 8 8
18 18 15 14 14 15 16 16 16 17 17 16 17 17 19 21 20 20 19 18 17 16 16 16 16 17 17 17 17 17 17 17 17 16 16 15 15 14 14 12 10 9 8 7
17 17 16 14 13 13 14 15 15 16 16 17 18 18 19 21 22 20 19 17 16 15 15 15 15 16 16 16 16 16 17 16 16 16 16 15 15 14 13 12 11 10 9 7
16 17 16 15 15 16 14 14 15 16 16 17 17 18 20 20 20 18 17 17 15 14 14 14 14 15 15 16 16 16 16 16 16 15 15 15 14 14 13 12 11 10 8 6
15 16 17 17 14 13 15 15 15 16 17 16 16 18 20 19 18 16 17 16 14 13 13 14 14 14 15 15 15 15 15 15 15 15 14 14 14 13 13 12 11 9 7 5
13 15 16 17 15 13 13 13 14 15 15 15 15 18 20 19 19 18 17 15 14 13 13 13 13 14 14 14 14 14 14 14 14 14 14 14 13 13 12 11 10 8 7 5
13 15 16 17 18 17 15 14 12 13 15 16 16 17 19 19 19 17 15 14 13 12 12 12 12 13 13 13 13 13 13 13 13 13 13 13 12 12 11 10 9 7 6 4
13 14 15 15 16 14 14 14 15 13 14 15 16 17 18 18 17 15 14 13 12 12 12 12 12 12 12 12 12 12 12 12 12 12 12 11 11 11 10 9 8 6 5 4
12 13 13 13 14 13 12 14 14 14 14 14 15 15 16 15 14 14 14 13 12 12 11 11 11 11 10 10 10 10 11 11 10 10 11 10 10 10 9 9 7 6 5 3
12 12 12 14 13 12 13 14 14 14 14 14 15 16 15 14 14 13 13 12 12 11 11 10 10 9 9 9 9 9 9 9 10 10 10 9 9 9 8 7 7 6 4 2
12 11 12 12 11 10 16 15 14 14 14 14 13 14 14 13 12 12 12 11 11 10 10 9 9 8 8 8 8 8 9 9 9 9 9 8 8 8 7 6 6 5 3 1
10 11 11 10 12 13 15 14 13 13 14 14 13 13 12 11 11 12 11 10 9 9 8 8 7 7 7 7 7 7 8 8 8 7 7 7 7 6 6 6 5 3 2 0
7 9 10 9 9 11 16 13 11 12 13 13 12 12 11 11 10 11 10 9 8 8 7 7 6 6 7 6 6 6 7 6 6 6 6 6 5 5 5 4 3 2 1 -0
8 8 8 9 9 12 14 10 11 12 14 12 11 11 10 10 10 9 8 8 7 7 6 6 6 6 6 6 6 5 5 5 4 5 5 5 4 4 3 3 2 1 -0 -2
11 10 9 9 9 11 12 10 12 13 12 11 10 10 9 9 8 7 7 6 6 6 5 5 5 5 5 5 4 4 4 3 3 3 4 3 3 3 2 2 1 -0 -2 -3
10 12 12 11 12 14 10 11 11 10 10 10 9 8 8 7 7 6 5 5 5 5 5 4 4 4 4 4 3 3 3 2 2 2 2 2 2 2 2 1 0 -1 -2 -4
11 9 9 10 12 12 11 10 10 10 9 8 8 7 6 5 5 5 5 4 4 4 4 4 3 3 3 3 2 2 2 1 1 1 1 1 1 1 1 0 -0 -2 -3 -4
10 9 9 10 11 11 10 10 9 8 8 7 6 6 5 4 4 4 4 4 4 3 3 3 2 2 2 1 1 1 1 0 0 0 0 0 0 0 -0 -0 -1 -2 -3 -3
10 10 10 10 11 11 10 9 8 7 6 5 5 4 4 4 4 4 3 3 3 3 3 2 1 1 0 0 1 1 0 -0 -0 -0 -0 -1 -1 -1 -1 -2 -2 -2 -3 -4

GEFSCGP_850_meantemp_084.txt.gz
Temperature
21 19 19 20 20 19 19 18 18 19 21 19 18 18 19 20 21 21 21 21 21 21 21 20 19 18 16 15 13 13 12 12 12 12 11 11 11 11 10 10 10 9 9 9
20 19 20 20 19 19 18 18 18 19 20 19 18 18 19 21 22 22 21 20 20 19 19 20 19 18 16 15 14 13 12 12 13 13 13 13 12 12 11 10 10 10 9 9
19 21 20 20 19 19 19 18 18 17 17 18 18 18 21 22 22 21 21 20 19 18 18 18 18 17 16 15 15 14 13 12 12 12 11 11 10 9 9 10 11 10 10 9
20 20 19 19 18 19 18 19 17 17 16 16 18 15 19 21 20 19 19 19 18 18 17 17 17 17 16 15 15 14 13 12 12 11 11 11 11 12 13 12 12 11 10 9
19 20 19 18 19 18 18 17 16 16 15 15 17 17 18 21 19 18 18 18 18 17 17 17 16 16 16 15 14 13 13 12 11 11 11 10 11 12 11 10 10 9 9 9
18 19 18 18 17 17 17 16 16 16 15 15 19 18 18 20 19 19 18 19 18 17 17 16 16 16 15 15 14 14 13 12 11 11 10 10 10 10 10 9 9 9 8 8
20 18 18 17 17 17 16 16 17 16 15 17 18 18 17 20 19 19 19 18 18 17 16 15 15 15 15 14 14 14 13 13 12 11 10 10 10 9 9 9 8 8 7 7
19 18 17 17 17 16 18 17 16 16 16 17 19 17 18 20 20 20 19 18 17 16 15 15 14 14 14 14 14 14 13 13 12 11 11 10 10 9 9 9 8 8 7 7
19 18 17 17 17 17 17 17 17 16 16 16 17 19 21 21 19 19 19 18 16 15 15 14 14 14 14 14 14 13 13 13 13 12 12 11 11 10 10 9 9 8 8 7
18 18 18 15 16 15 16 16 16 15 15 15 17 18 19 20 19 19 18 17 16 15 14 14 14 14 14 13 13 13 13 13 13 12 12 11 11 10 10 9 9 9 8 7
18 17 17 15 15 17 14 15 15 15 16 15 14 16 20 19 19 18 17 16 15 15 14 14 13 13 13 13 13 13 12 12 12 12 11 11 11 10 10 9 9 9 8 7
18 16 16 18 17 16 17 17 16 15 15 16 14 16 20 20 19 18 17 16 15 14 14 13 13 13 12 12 12 12 12 11 11 11 10 10 10 10 9 9 9 8 8 7
17 15 15 16 15 15 15 16 16 15 14 13 13 15 19 18 18 17 16 16 15 14 14 13 12 12 12 11 11 11 11 10 10 10 9 9 9 9 8 8 8 8 7 7
15 15 15 15 16 16 16 16 15 14 13 13 14 15 17 17 16 15 16 15 14 14 13 12 12 11 11 11 10 10 10 9 9 9 8 8 8 8 7 7 7 7 6 6
14 13 14 15 16 16 15 15 15 15 14 14 14 15 16 16 15 15 14 14 14 13 13 12 11 11 10 10 9 9 9 8 8 8 7 7 7 7 7 6 6 6 6 5
13 13 13 14 15 15 15 15 15 15 15 15 15 15 16 15 15 14 13 13 13 12 12 11 10 10 9 9 8 8 7 7 7 7 7 7 6 6 6 5 5 5 5 4
13 13 13 12 14 14 13 14 15 15 15 15 14 14 14 13 13 12 12 12 12 11 10 10 9 9 8 8 7 7 7 6 6 6 6 6 5 5 4 4 4 4 3 3
13 13 11 10 11 9 13 16 16 16 15 15 14 14 13 12 12 12 12 11 10 10 9 9 8 8 7 7 6 6 6 6 5 5 5 4 4 3 3 3 3 2 2 2
12 12 11 9 10 11 14 15 15 14 14 14 13 12 13 12 11 11 11 10 9 9 8 8 7 7 6 6 6 5 5 5 4 4 3 3 2 2 2 2 2 1 1 1
9 10 10 9 9 9 13 13 13 13 12 12 12 11 12 11 7 8 10 9 9 8 7 7 6 6 6 5 5 4 4 3 3 2 2 2 2 1 1 1 0 0 0 0
9 8 8 8 8 10 14 12 13 11 11 12 12 11 11 9 8 9 8 8 7 7 6 6 6 5 5 5 4 3 3 2 2 1 1 1 1 0 -0 -0 -0 -0 -1 -1
9 9 8 8 8 9 13 12 12 12 12 12 11 10 10 9 8 8 7 7 6 6 6 5 5 4 4 4 3 2 2 1 1 0 0 0 -0 -0 -1 -1 -1 -1 -1 -1
11 12 11 10 11 13 13 13 13 12 11 11 10 9 8 8 7 7 6 6 5 5 5 5 4 4 3 3 2 1 1 0 -0 -0 -0 -1 -1 -1 -1 -1 -1 -2 -2 -2
12 12 11 10 11 13 13 13 12 11 10 9 8 8 7 7 6 5 5 5 5 4 4 4 3 3 2 2 1 0 -0 -0 -1 -1 -1 -1 -1 -1 -2 -2 -2 -2 -2 -3
10 10 10 10 10 12 12 11 10 9 8 8 7 7 6 5 5 4 4 4 4 4 3 3 2 2 1 0 -0 -0 -1 -1 -1 -1 -2 -2 -2 -2 -2 -2 -3 -3 -3 -3
9 9 9 9 10 9 9 9 8 7 7 6 6 5 5 4 4 4 4 3 3 3 3 2 1 1 0 -0 -1 -1 -1 -2 -2 -2 -2 -2 -2 -3 -3 -3 -3 -3 -3 -4

GEFSCGP_850_meantemp_090.txt.gz
Temperature
17 14 14 14 14 15 16 15 14 14 15 15 14 14 14 16 16 16 17 17 18 18 18 19 19 19 19 18 17 17 16 15 14 13 12 11 11 11 11 11 10 10 9 9
14 14 14 15 15 16 16 15 14 14 14 15 14 13 14 15 15 16 16 17 17 18 18 19 19 19 18 18 17 16 16 15 14 14 13 12 11 11 11 10 10 10 9 9
15 15 16 17 17 16 16 15 14 14 13 13 14 14 15 16 15 16 16 17 17 17 17 17 18 17 17 17 16 16 15 15 14 13 12 12 11 10 10 10 10 10 9 9
14 15 16 17 16 16 14 15 15 15 13 12 13 13 14 15 15 15 15 16 16 16 16 17 17 16 16 16 15 15 14 14 13 13 12 12 11 11 11 11 10 10 9 9
15 16 17 17 16 16 15 15 14 14 13 12 12 12 12 14 15 15 15 15 16 16 16 16 16 16 15 15 15 14 14 13 13 12 12 11 11 11 10 10 9 9 9 8
14 16 17 16 16 16 15 14 13 11 11 12 13 12 13 13 15 15 14 15 15 15 15 15 15 15 15 14 14 14 13 13 12 12 11 11 10 10 10 9 9 9 8 8
15 15 16 16 16 15 14 12 12 13 12 13 13 13 13 14 14 14 14 14 15 15 15 14 14 14 14 14 13 13 13 12 12 12 11 11 10 10 9 9 9 8 8 8
15 15 15 15 15 15 14 13 13 14 13 12 12 13 14 14 15 15 15 14 14 14 14 14 13 13 13 13 13 13 12 12 12 11 11 11 10 10 9 9 9 8 8 8
14 15 15 15 15 15 15 13 12 11 12 12 11 12 13 14 13 13 13 14 14 14 13 13 13 13 13 12 12 12 12 11 11 11 10 10 10 9 9 9 8 8 8 7
15 15 15 14 14 14 14 12 11 12 12 12 11 12 13 15 14 13 12 13 14 13 13 13 12 12 12 12 11 11 11 10 10 10 9 9 9 8 8 8 8 7 7 7
16 14 14 14 13 14 13 13 12 10 10 11 11 12 13 14 14 12 12 14 14 13 13 12 12 12 11 11 11 10 10 10 9 9 8 8 8 8 7 7 7 7 6 6
14 11 12 12 13 13 12 12 11 12 11 10 9 11 13 13 13 13 13 14 13 12 12 12 11 11 10 10 10 9 9 9 8 8 7 7 7 7 7 6 6 6 6 6
13 12 12 13 13 13 13 13 12 11 10 9 9 12 12 12 12 13 13 13 12 12 11 11 10 10 10 9 9 8 8 8 7 7 7 6 6 6 6 6 6 5 5 5
12 11 12 13 13 13 13 13 12 11 9 9 9 11 13 12 12 11 12 12 11 11 10 10 10 9 9 8 8 8 7 7 6 6 6 6 5 5 5 5 4 4 4 3
11 11 11 11 12 12 11 11 11 10 10 10 11 11 13 12 11 11 11 11 11 10 10 9 9 8 8 8 7 7 6 6 6 5 5 5 5 4 4 4 3 3 2 2
10 11 11 11 11 11 10 11 11 10 10 10 10 11 11 11 11 10 10 10 10 9 9 8 8 8 7 7 6 6 5 5 5 4 4 4 4 3 3 2 2 2 2 1
8 9 10 9 9 10 9 11 11 11 10 10 10 10 10 10 10 10 10 9 9 9 8 8 7 7 6 6 5 5 5 4 4 4 4 3 3 2 2 1 1 1 1 1
8 8 8 7 9 9 11 11 12 11 11 10 10 10 10 10 10 10 9 9 8 8 7 7 6 6 6 5 4 4 4 4 3 3 3 2 2 1 1 0 0 -0 -0 -0
8 8 7 6 7 8 9 11 12 12 11 10 9 9 9 9 8 9 9 8 8 7 7 6 6 5 5 4 4 4 3 3 3 2 2 1 0 -0 -0 -1 -1 -1 -1 -1
7 7 7 6 7 8 10 11 11 11 9 9 9 8 8 8 5 6 8 7 7 6 6 5 5 4 4 4 3 3 3 2 2 1 0 -0 -0 -1 -1 -1 -1 -1 -1 -1
7 6 6 5 6 7 9 10 11 10 9 9 9 9 8 7 6 7 7 6 6 5 5 4 4 4 3 3 2 2 2 1 0 -0 -0 -1 -1 -1 -1 -2 -2 -2 -2 -2
7 6 5 4 5 7 9 10 9 8 9 9 8 8 7 7 7 6 6 5 5 4 4 3 3 3 3 2 2 1 1 0 -0 -1 -1 -1 -2 -2 -2 -2 -2 -2 -2 -3
7 7 6 6 8 9 10 9 9 9 8 8 7 7 6 6 5 5 5 4 4 4 3 3 2 2 2 2 1 0 -0 -1 -1 -2 -2 -2 -2 -2 -2 -3 -3 -3 -3 -3
7 7 6 6 7 8 8 8 7 7 7 6 6 6 5 5 4 4 4 4 3 3 3 2 2 1 1 1 0 -0 -1 -2 -2 -2 -2 -3 -3 -3 -3 -3 -3 -3 -4 -4
7 7 6 6 6 7 7 7 6 6 6 6 5 5 5 4 4 4 3 3 3 2 2 1 1 1 0 -0 -1 -1 -2 -3 -3 -3 -3 -3 -3 -4 -4 -4 -4 -4 -4 -4
5 6 6 6 6 6 6 6 6 6 5 5 5 4 4 4 3 3 3 2 2 2 1 1 0 -0 -0 -1 -1 -2 -3 -3 -4 -4 -4 -4 -4 -4 -4 -4 -4 -4 -4 -4

GEFSCGP_850_meantemp_096.txt.gz
Temperature
15 13 13 13 12 14 15 14 13 12 13 13 13 12 12 13 14 15 15 16 16 16 16 17 18 18 18 18 17 16 15 15 14 14 13 12 12 11 11 11 10 10 9 9
13 13 13 13 13 13 13 14 13 12 13 13 12 11 12 13 14 14 14 15 15 16 17 17 17 17 17 17 16 16 15 14 14 13 12 12 11 11 11 10 10 10 9 9
14 14 14 14 14 14 13 13 13 13 13 12 12 14 14 14 14 14 15 15 15 15 16 16 16 16 16 16 16 15 15 14 13 13 12 11 11 11 11 10 10 9 9 9
12 13 13 14 14 14 13 13 13 13 12 11 12 12 13 13 14 14 14 15 15 15 15 16 16 16 15 15 15 14 14 13 13 12 12 11 11 11 11 10 10 9 9 8
13 14 14 14 14 13 13 14 13 13 12 11 11 11 12 12 14 13 14 14 15 15 15 15 15 14 14 14 14 13 13 13 12 12 12 11 11 11 10 10 10 9 9 8
13 14 15 15 14 14 13 12 11 9 9 12 12 11 12 11 13 13 13 14 14 14 14 14 14 13 13 13 13 13 12 12 12 12 11 11 11 10 10 10 9 9 9 8
14 14 14 14 14 13 13 12 12 13 11 12 12 11 11 12 12 12 13 14 14 14 14 13 13 13 13 12 12 12 12 12 11 11 11 10 10 10 9 9 9 8 8 8
14 13 14 13 14 13 13 12 12 13 12 11 11 11 11 12 11 12 13 14 14 14 13 13 12 12 12 12 11 11 11 11 10 10 10 9 9 8 8 8 8 8 7 7
12 13 13 13 13 13 12 11 11 10 11 10 10 10 11 12 11 11 12 13 13 13 12 12 12 11 11 11 11 10 10 10 9 9 9 8 8 7 7 7 7 7 7 7
12 14 14 13 13 12 12 9 9 10 12 12 11 11 11 13 12 11 11 12 13 12 12 11 11 11 10 10 10 10 9 9 8 8 8 7 7 7 6 6 6 6 6 6
13 13 13 13 12 12 11 11 10 8 9 10 11 11 11 12 12 11 11 12 12 12 12 11 11 10 10 10 9 9 8 8 7 7 7 6 6 6 6 6 6 6 6 5
11 10 11 12 12 11 11 11 9 11 10 8 8 11 12 11 11 11 11 12 12 12 11 11 10 10 10 9 9 8 7 7 6 6 6 6 6 6 6 6 5 5 5 5
10 11 12 12 12 11 11 10 9 9 8 6 8 11 11 10 10 11 11 11 11 11 11 10 10 9 9 8 8 7 7 6 6 6 5 5 5 5 5 5 5 4 4 4
11 10 11 13 12 11 11 11 9 9 8 7 7 10 11 10 10 10 10 11 11 10 10 9 9 8 8 7 7 6 6 5 5 5 5 5 5 5 4 4 4 3 3 2
10 11 11 10 11 11 11 11 9 9 9 9 9 9 10 10 9 10 10 10 10 9 9 8 8 7 7 6 6 5 5 5 5 4 4 4 4 4 3 3 3 2 2 1
9 10 10 11 10 9 9 9 9 9 8 8 8 9 9 9 9 9 9 9 9 9 8 8 7 7 6 5 5 5 4 4 4 4 4 3 3 3 2 2 2 1 1 0
7 8 9 9 9 9 9 9 9 8 8 8 8 8 8 8 8 9 9 9 8 8 7 7 6 6 5 5 4 4 4 3 3 3 3 3 2 2 1 1 1 0 -0 -0
7 8 7 7 9 9 10 10 9 9 9 7 8 8 8 8 9 9 9 8 8 7 6 6 5 5 4 4 4 3 3 3 3 2 2 2 1 1 0 -0 -0 -1 -1 -1
7 7 6 6 7 7 9 9 9 8 8 8 7 7 8 8 7 8 8 7 7 6 5 5 4 4 4 3 3 3 3 2 2 2 1 1 0 -0 -1 -1 -1 -2 -2 -2
5 6 6 5 7 8 10 10 10 9 8 8 7 7 7 6 5 5 7 6 6 5 5 4 4 4 3 3 2 2 2 2 1 1 0 -0 -1 -1 -2 -2 -2 -2 -3 -3
6 6 5 5 6 7 8 9 9 9 9 8 8 8 7 6 5 6 6 5 5 4 4 4 3 3 3 2 2 1 1 1 0 -0 -0 -1 -1 -2 -2 -3 -3 -3 -3 -4
6 5 5 4 5 7 8 7 7 8 8 8 8 7 7 6 6 5 5 4 4 4 3 3 3 3 2 2 1 1 1 0 -0 -1 -1 -1 -2 -2 -3 -3 -3 -4 -4 -4
6 7 6 6 7 7 8 8 8 8 8 7 7 6 6 5 5 4 4 4 3 3 3 2 2 2 2 1 0 -0 -0 -1 -1 -1 -2 -2 -2 -3 -3 -4 -4 -4 -5 -5
6 5 5 5 5 6 7 7 7 7 7 6 6 5 5 4 4 4 3 3 3 2 2 2 1 1 1 1 0 -0 -1 -1 -2 -2 -2 -3 -3 -4 -4 -4 -5 -5 -5 -6
6 4 5 5 5 6 6 7 7 6 6 5 5 4 4 4 3 3 2 2 2 2 2 1 1 0 0 0 -0 -1 -1 -2 -3 -3 -3 -4 -4 -4 -5 -5 -5 -5 -6 -6
4 5 5 6 6 5 6 6 6 5 5 4 4 4 3 3 3 2 2 2 2 1 1 1 0 0 -0 -0 -1 -1 -2 -3 -3 -4 -4 -4 -5 -5 -5 -5 -5 -5 -6 -6

GEFSCGP_850_meantemp_102.txt.gz
Temperature
17 19 19 19 19 19 18 18 19 19 17 17 18 18 19 17 17 17 16 16 15 14 14 15 16 16 16 16 16 16 15 14 14 13 12 12 11 11 11 10 10 10 9 9
18 19 19 17 16 16 17 18 18 18 16 16 17 18 18 17 17 16 16 15 14 14 14 15 15 16 16 15 15 15 14 14 13 13 12 12 11 11 11 10 10 10 9 9
19 18 16 16 16 16 17 18 18 18 17 16 16 19 18 17 16 15 15 14 14 13 13 14 15 15 15 14 14 14 13 13 13 12 12 12 11 11 11 10 10 10 9 9
18 17 15 16 17 17 18 17 16 16 17 19 17 19 19 18 18 17 16 15 14 13 13 13 14 14 14 14 13 13 13 13 12 12 12 11 11 10 10 10 10 10 9 9
18 16 15 16 17 16 17 15 15 15 16 17 17 18 20 17 18 18 17 15 13 12 12 13 14 14 13 13 13 12 12 12 12 12 11 11 10 10 10 9 9 9 9 8
17 16 16 17 15 15 14 15 14 15 16 17 18 18 20 19 19 19 17 15 13 12 12 12 13 13 12 12 12 12 12 12 11 11 11 10 9 9 9 8 8 8 8 8
16 16 15 15 15 14 15 17 18 18 18 19 16 16 19 18 18 18 17 15 13 12 12 12 12 12 12 12 12 11 11 11 11 10 10 9 8 8 8 7 7 7 7 7
17 17 16 15 17 17 16 17 18 19 19 19 15 17 19 16 15 14 15 14 12 12 11 11 11 11 11 11 11 11 11 10 10 9 9 8 8 7 7 7 6 6 6 6
17 17 14 14 15 17 16 17 17 18 16 17 19 18 18 15 15 14 14 13 12 11 11 11 11 11 11 11 10 10 10 9 9 8 8 7 7 6 6 6 6 6 6 5
18 17 15 14 14 13 15 16 16 17 17 18 19 18 19 17 16 15 14 13 12 11 10 10 10 10 10 10 10 9 9 8 8 7 7 7 6 6 6 5 5 5 5 5
17 17 15 14 15 16 14 15 16 17 17 18 18 19 18 18 16 16 15 14 12 11 10 10 10 10 10 9 9 9 8 8 7 7 6 6 6 5 5 5 5 4 4 4
16 17 17 15 14 14 16 16 16 17 17 16 17 19 16 16 15 15 14 12 11 11 10 10 9 9 9 9 8 8 7 7 6 6 6 5 5 5 4 4 4 4 4 3
14 16 16 15 14 13 14 14 15 16 16 16 16 18 14 14 14 13 13 12 11 10 9 9 9 9 8 8 8 7 7 6 6 5 5 5 4 4 4 4 3 3 3 2
15 16 17 18 17 16 14 13 13 15 16 16 16 18 16 15 14 13 12 11 11 10 9 8 8 8 7 7 7 6 6 5 5 5 4 4 4 3 3 3 3 2 2 2
15 16 16 15 14 14 15 14 13 14 16 16 17 17 17 16 15 14 12 11 10 9 8 8 8 7 7 6 6 5 5 5 4 4 4 3 3 3 3 2 2 2 1 1
14 15 14 14 12 12 13 14 14 14 15 15 16 16 16 14 12 12 11 10 9 8 8 8 7 6 6 6 5 5 4 4 4 4 3 3 2 2 2 1 1 1 0 -0
13 14 14 15 12 12 14 15 14 13 13 14 15 15 14 12 11 11 10 9 8 8 7 7 6 6 5 5 5 4 4 4 4 3 3 2 2 1 1 1 0 -0 -1 -1
13 14 14 13 12 12 16 13 13 13 13 13 13 12 12 11 10 9 9 8 8 7 7 6 6 5 5 4 4 4 4 3 3 2 2 1 1 1 0 -0 -1 -1 -2 -2
12 13 12 12 13 14 15 12 12 12 13 12 12 11 10 8 8 8 7 7 7 6 6 6 5 5 4 4 4 3 3 3 2 2 1 1 0 -0 -0 -1 -1 -2 -2 -3
9 11 13 11 11 12 15 12 10 12 13 12 11 11 9 8 11 11 7 7 6 6 5 5 5 4 4 3 3 3 2 2 1 1 1 1 -0 -1 -1 -1 -2 -2 -3 -3
9 10 11 12 11 14 13 10 10 12 14 10 10 9 9 9 10 8 7 6 6 5 5 4 4 4 3 3 2 2 2 1 1 1 0 0 -0 -1 -1 -2 -2 -3 -4 -4
11 11 11 11 11 12 11 10 12 13 9 9 9 8 8 8 7 7 6 6 5 5 4 4 3 3 3 2 2 1 1 1 0 0 -0 -1 -1 -1 -2 -3 -3 -4 -4 -4
10 12 12 12 13 11 9 10 9 9 8 8 8 8 8 7 6 6 5 5 4 4 4 3 3 3 3 2 1 1 1 0 -0 -0 -1 -1 -2 -2 -3 -3 -4 -4 -5 -5
9 8 10 10 10 9 8 8 8 8 8 8 8 7 7 6 6 5 5 4 4 3 3 3 2 2 2 1 1 0 0 -0 -1 -1 -1 -2 -3 -3 -4 -4 -5 -5 -5 -6
11 8 9 10 9 7 7 7 7 8 8 7 7 6 6 5 5 4 4 4 3 3 3 2 2 1 1 1 1 0 -0 -1 -1 -2 -2 -3 -4 -4 -5 -5 -5 -5 -5 -6
8 8 10 12 10 9 9 8 7 7 7 6 6 5 5 4 4 4 3 3 3 2 2 2 1 1 1 0 -0 -0 -1 -2 -2 -2 -3 -3 -4 -5 -5 -6 -6 -5 -6 -6

GEFSCGP_850_meantemp_108.txt.gz
Temperature
19 18 18 19 20 20 19 19 18 19 20 19 18 18 19 20 19 19 19 18 16 15 14 14 14 14 14 14 14 14 14 13 12 12 11 11 11 10 10 10 10 10 9 9
18 18 19 20 19 19 18 18 18 19 19 18 18 18 19 19 19 19 19 18 16 15 14 13 13 14 14 14 14 13 13 13 12 12 12 11 11 11 10 10 10 10 9 9
18 19 20 19 19 18 18 17 18 18 19 18 17 17 18 19 19 19 19 18 16 15 14 13 13 13 14 14 13 13 13 12 12 12 11 11 11 10 10 10 10 9 9 9
19 20 19 18 18 18 17 19 19 18 17 16 18 16 18 17 17 17 18 17 16 15 14 13 13 14 14 14 13 13 12 12 12 12 11 11 11 10 10 9 9 9 8 8
19 19 18 17 18 18 18 17 18 17 16 15 17 16 17 17 16 16 16 17 16 15 14 13 13 13 13 13 13 13 12 12 12 11 11 11 10 10 9 9 8 8 8 7
19 19 18 18 18 18 17 17 17 16 15 14 17 16 17 17 17 16 16 17 15 14 13 13 13 13 13 13 12 12 12 12 11 11 11 10 10 9 9 8 8 7 7 7
17 18 18 18 16 16 16 16 15 15 14 15 19 18 18 19 18 17 17 16 15 14 13 12 12 12 12 12 12 12 12 11 11 11 10 10 9 9 8 8 7 7 7 6
16 17 17 17 17 16 15 16 15 16 16 17 17 17 18 17 18 19 18 16 15 14 13 12 12 12 12 12 11 11 11 11 11 10 10 9 8 8 8 7 7 7 6 6
18 17 18 17 17 17 16 15 17 16 16 17 17 18 16 17 16 17 17 16 14 13 13 12 12 12 11 11 11 11 11 10 10 9 9 8 8 7 7 7 6 6 6 5
18 18 16 15 16 16 16 17 16 15 15 15 18 18 16 15 15 16 15 15 14 14 13 12 11 11 11 11 10 10 10 9 9 9 8 8 7 7 7 6 6 5 5 5
18 17 15 14 14 15 15 16 16 16 17 16 16 17 17 16 16 15 15 15 14 14 13 12 11 11 10 10 10 9 9 9 8 8 8 7 7 6 6 6 5 5 4 4
17 17 16 15 16 16 16 16 16 15 16 16 15 16 17 17 16 16 16 16 15 14 13 12 11 10 10 9 9 9 8 8 8 7 7 6 6 6 5 5 5 4 4 4
17 16 15 15 14 14 15 16 16 16 16 15 15 16 16 16 16 16 16 15 14 13 12 12 11 10 9 9 8 8 8 7 7 7 6 6 6 5 5 5 4 4 4 3
17 16 16 16 16 14 14 15 16 15 14 15 15 17 15 15 15 15 15 15 14 13 12 11 10 10 9 8 8 7 7 7 6 6 6 5 5 5 4 4 4 4 3 3
15 15 16 17 16 17 16 16 15 15 15 15 16 17 17 16 15 15 15 14 13 12 11 11 10 9 9 8 7 7 7 6 6 6 5 5 5 4 4 4 3 3 3 2
14 14 16 16 16 15 15 16 15 15 15 15 15 16 17 16 16 16 15 14 13 12 11 10 10 9 8 7 7 7 6 6 6 5 5 4 4 4 4 3 3 2 2 2
13 14 14 14 15 14 13 14 15 15 15 15 14 15 16 15 14 15 14 13 12 12 11 10 9 8 7 7 7 6 6 5 5 5 4 4 3 3 3 2 2 2 1 1
14 14 13 13 13 11 15 16 16 16 15 15 15 15 14 14 14 14 14 13 12 11 10 9 8 7 7 6 6 6 5 5 4 4 4 3 3 2 2 2 1 1 0 -0
12 14 12 11 12 13 15 14 14 14 14 15 15 14 14 13 12 12 12 12 11 10 9 8 7 7 6 6 5 5 5 4 4 3 3 2 2 2 1 1 1 0 -0 -1
11 12 12 11 11 11 15 13 14 14 12 15 14 13 12 10 8 9 11 10 9 9 8 7 7 6 6 5 5 4 4 4 3 3 2 2 2 1 1 0 -0 -1 -1 -2
10 11 10 10 10 11 14 12 13 12 13 13 14 13 12 10 9 10 10 9 8 8 7 6 6 6 5 5 4 4 3 3 2 2 2 1 1 1 0 -0 -1 -1 -2 -2
10 10 10 10 10 11 11 11 11 12 12 13 13 12 12 10 9 9 8 8 7 7 6 6 5 5 4 4 3 3 3 2 2 1 1 1 1 0 -0 -1 -1 -2 -2 -3
12 12 12 11 12 13 12 12 12 12 12 12 12 11 11 10 8 8 7 7 6 6 5 5 5 4 4 3 3 2 2 1 1 1 0 0 -0 -0 -1 -2 -2 -3 -3 -4
12 12 12 12 12 12 12 12 12 12 11 11 11 10 10 9 8 7 6 6 5 5 5 4 4 4 3 3 2 2 1 1 0 0 -0 -0 -1 -1 -1 -2 -3 -3 -4 -4
12 10 10 11 12 12 11 11 11 10 10 10 9 9 8 8 7 6 6 5 5 4 4 4 3 3 3 2 2 1 1 0 -0 -0 -1 -1 -2 -2 -2 -3 -3 -4 -4 -5
11 10 10 11 12 10 11 11 11 10 9 9 8 7 7 7 6 5 5 4 4 4 3 3 3 2 2 1 1 1 0 -0 -1 -1 -1 -2 -2 -3 -3 -3 -4 -4 -5 -5